108  
NZUS93 KARX 230710  
HRRWXR  
 
CURRENT HOURLY OBSERVATIONS ACROSS  
MUCH OF THE UPPER MISSISSIPPI VALLEY  
NATIONAL WEATHER SERVICE LA CROSSE WI  
200 AM CDT WED AUG 23 2017  
 
   
..SOUTHEAST MINNESOTA
 
 
 
CITY SKY/WX TMP DP RH WIND PRES REMARKS  
ROCHESTER CLEAR 52 49 89 W9 30.08F  
ROCHESTER/MAYO FAIR 58 49 72 W9 30.07S  
WINONA CLEAR 55 50 82 NW3 30.05S  
AUSTIN CLEAR 57 48 72 W6 30.09F  
ALBERT LEA CLEAR 57 52 82 W5 30.10F  
DODGE CENTER CLEAR 52 48 87 W7 30.08F  
PRESTON CLEAR 53 47 81 W9 30.08S  
OWATONNA CLEAR 52 48 87 SW3 30.09S  
FARIBAULT CLEAR 57 52 82 W7 30.09R  

 
   
..ELSEWHERE IN MINNESOTA
 
 
 
CITY SKY/WX TMP DP RH WIND PRES REMARKS  
MINNEAPOLIS CLEAR 60 48 64 NW5 30.06S  
INTNL FALLS CLEAR 47 45 93 NW6 30.03R  
DULUTH CLEAR 51 50 96 NW7 30.01R  
RED WING CLEAR 54 50 87 CALM 30.05R  
REDWOOD FALLS CLEAR 55 50 83 NW5 30.10F  
MANKATO CLEAR 55 50 83 W5 30.10S  
WORTHINGTON CLEAR 52 48 86 SW6 30.15F  
FAIRMONT CLEAR 54 51 90 W5 30.13S  

 
   
..SOUTHWEST WISCONSIN
 
 
 
CITY SKY/WX TMP DP RH WIND PRES REMARKS  
LA CROSSE CLEAR 63 51 65 NW6 30.03  
PRAIRIE DU CHI CLEAR 58 48 68 CALM 30.06S  
BOSCOBEL CLEAR 54 51 90 SW5 30.05S  
LONE ROCK CLEAR 54 52 93 W5 30.04S  
PLATTEVILLE CLEAR 53 53 100 SW5 30.07S  
FORT MC COY CLEAR 47 46 98 CALM 30.03S  
CAMP DOUGLAS CLEAR 53 48 83 W8 30.01S  
MAUSTON-NEW LI SUNNY 60 50 69 W8 30.00F  
VIROQUA FAIR 54 51 90 W8 30.05S  
WIS DELLS CLEAR 56 48 74 CALM 30.02S  

 
   
..ELSEWHERE IN WISCONSIN
 
 
 
CITY SKY/WX TMP DP RH WIND PRES REMARKS  
MILWAUKEE CLEAR 63 52 67 W6 29.99S  
MADISON CLEAR 58 51 78 VRB5 30.01F  
GREEN BAY CLEAR 57 52 83 W8 29.94S  
EAU CLAIRE CLEAR 56 49 77 W5 30.02S  
BLACK RVR FLS FAIR 49 49 100 NW6 30.01S  
MEDFORD CLEAR 51 48 89 W5 30.00S  
WAUSAU CLEAR 54 50 86 W8 29.97S  
WIS RAPIDS CLEAR 55 49 80 NW6 30.01S  
MARSHFIELD CLEAR 53 48 83 W5 30.00R  
RICE LAKE CLEAR 54 49 83 W3 30.04S  

 
   
..NORTHEAST IOWA
 
 
 
CITY SKY/WX TMP DP RH WIND PRES REMARKS  
WATERLOO CLEAR 53 50 89 NW5 30.10S  
DUBUQUE CLEAR 55 50 83 NW7 30.08S  
DECORAH CLEAR 55 50 82 CALM 30.07S  
MASON CITY CLEAR 51 48 89 W9 30.13S  
CHARLES CITY CLEAR 52 52 100 W7 30.10F  
OELWEIN N/A 52 52 100 W7 30.10S  

 
   
..ELSEWHERE IN IOWA
 
 
 
CITY SKY/WX TMP DP RH WIND PRES REMARKS  
DES MOINES CLEAR 58 54 86 W3 30.13F  
IOWA CITY CLEAR 56 52 86 CALM 30.11S  
FORT DODGE CLEAR 54 50 87 CALM 30.15S  
MARSHALLTOWN CLEAR 52 51 97 W5 30.12S  
CEDAR RAPIDS CLEAR 52 51 97 NW6 30.09S  

 
   
..NORTHERN ILLINOIS
 
 
 
CITY SKY/WX TMP DP RH WIND PRES REMARKS  
CHICAGO-OHARE CLEAR 63 50 62 W9 30.01S  
CHICAGO-MIDWAY CLEAR 64 52 64 NW6 30.01F  
MOLINE CLEAR 57 52 83 SW5 30.08S  
ROCKFORD CLEAR 56 51 84 S3 30.05S  
PEORIA CLEAR 59 54 83 NW5 30.07F  

 
 
NOTE: "FAIR" INDICATES FEW OR NO CLOUDS BELOW 12,000 FEET WITH NO  
SIGNIFICANT WEATHER AND/OR OBSTRUCTIONS TO VISIBILITY. WIND  
SPEEDS ARE IN MILES-PER-HOUR.  
 
 
CLICK HERE TO GO TO PREVIOUS BULLETINS.

The Nexlab WI Page
The Nexlab IA Page
The Nexlab MN Page Main Text Page